Theta_e
322 322 323 324 324 327 328 328 329 329 329 329 329 328 327 327 326 316 310 321 322 328 321 308 308 307 308 306 307 306 297 294 296 295 297 300 300 301 302 309 305 310 313 316 327
321 322 322 323 322 323 327 328 328 329 329 329 329 328 327 325 313 311 320 326 329 328 313 306 308 306 303 304 304 301 295 296 300 299 298 298 300 300 301 304 304 311 317 323 326
320 321 321 322 321 322 324 327 327 328 328 328 328 327 326 317 310 309 326 325 332 325 317 312 308 306 302 303 302 300 297 299 300 299 300 299 298 299 299 300 304 307 314 321 324
318 320 320 322 322 323 323 326 327 327 328 328 328 327 321 312 297 305 323 330 330 316 311 310 307 303 298 299 300 302 300 300 301 300 299 299 298 297 299 302 303 309 318 322 323
317 318 319 320 321 322 323 320 326 326 327 327 327 323 310 301 304 307 322 328 325 309 307 306 305 303 299 298 298 297 298 301 300 299 298 299 297 297 297 299 303 314 319 321 323
316 316 318 318 320 321 321 322 323 326 326 327 325 319 306 301 311 309 319 318 313 306 305 304 305 305 301 299 298 299 300 298 297 297 298 297 296 296 298 303 311 315 316 320 322
314 315 316 317 319 319 320 320 322 325 325 327 323 313 305 305 306 314 316 314 308 307 307 311 305 304 300 297 299 297 297 300 298 296 296 297 293 294 297 303 309 312 314 316 320
313 314 315 316 318 319 320 320 318 324 325 325 321 310 303 307 311 313 312 308 308 307 309 311 310 305 303 301 297 293 295 294 297 296 295 296 291 298 297 300 305 311 312 313 316
313 314 315 315 316 318 319 320 318 323 325 323 312 308 300 313 306 310 310 306 304 305 306 308 309 300 303 296 291 291 285 288 291 294 294 294 292 297 296 297 297 306 311 312 314
312 313 314 314 316 317 318 318 319 323 322 316 311 303 300 298 305 307 306 306 302 302 301 302 299 294 294 294 287 287 285 285 287 292 292 291 292 296 295 295 296 297 308 311 313
310 311 312 314 314 316 315 312 310 309 310 302 301 300 299 302 306 303 305 302 300 297 291 295 291 290 290 293 293 292 289 286 287 291 291 290 291 294 295 293 293 293 297 308 311
309 310 311 313 313 315 314 304 310 312 301 304 303 298 299 305 297 300 303 296 297 294 293 290 289 293 293 294 292 291 291 290 292 290 290 288 289 292 292 293 294 294 294 297 306
308 310 311 313 313 311 308 304 318 315 299 298 303 297 299 301 297 297 300 293 294 290 291 288 290 293 293 290 289 286 288 285 289 288 288 288 292 290 293 291 293 293 294 294 297
306 309 309 312 306 307 305 310 316 311 291 292 296 297 297 299 294 299 299 295 290 290 291 290 291 291 290 288 290 286 291 288 287 286 283 288 285 288 294 291 291 293 292 293 294
305 307 308 311 304 303 306 316 315 306 280 292 294 302 297 297 295 294 296 294 288 288 290 287 288 289 289 289 292 288 291 289 287 284 283 281 280 283 288 289 291 292 293 294 296
305 306 309 307 307 307 309 315 308 289 278 286 293 292 292 292 291 293 294 294 292 289 289 287 289 291 290 292 292 290 289 291 287 284 280 283 281 281 285 289 291 291 294 295 296
304 306 307 309 302 310 313 306 288 283 286 283 287 291 291 288 289 293 290 287 286 282 283 284 284 287 291 288 289 288 287 281 281 278 279 278 279 289 288 287 290 292 293 294 292
304 306 307 308 311 309 307 294 283 283 285 289 290 290 287 288 286 289 290 286 286 286 283 283 280 285 287 288 286 286 288 281 274 274 277 279 278 284 288 294 290 289 290 290 292
304 302 303 308 309 308 299 284 284 286 287 287 289 286 284 287 287 289 289 288 285 286 282 282 281 285 286 288 291 285 285 288 280 269 274 278 280 286 288 287 288 289 289 290 291
299 299 302 309 310 305 290 286 284 289 290 290 284 286 282 284 284 286 287 291 287 287 287 284 280 284 285 287 286 289 290 283 283 271 270 276 277 281 284 287 289 288 289 290 292
298 294 305 309 310 299 285 285 285 289 293 289 285 282 285 283 283 285 285 285 287 285 286 284 283 281 284 282 281 284 285 282 286 279 274 271 278 283 286 286 287 287 288 291 292
296 289 306 309 293 292 288 286 291 290 290 287 286 285 287 286 282 281 282 284 289 286 284 285 283 278 280 283 284 284 286 284 280 276 278 278 279 286 285 285 287 289 290 290 292
293 294 306 304 286 287 288 288 289 289 286 286 284 286 289 286 281 283 283 288 291 290 286 286 280 272 279 281 283 281 282 287 284 281 278 276 282 284 286 287 288 289 289 290 292
292 287 296 299 294 288 285 287 286 290 287 286 285 289 286 286 284 282 283 286 290 291 294 292 282 280 278 280 283 281 282 283 286 279 282 281 285 287 289 286 288 288 290 289 292
291 288 292 289 289 291 290 287 285 286 288 287 285 288 286 282 281 281 284 285 286 292 289 288 279 280 281 282 281 282 282 282 282 286 281 285 284 288 287 287 288 288 289 290 291
285 290 294 289 293 290 290 287 286 285 285 284 285 288 286 284 285 281 285 283 284 286 287 285 276 280 276 282 282 279 282 283 285 286 285 283 283 287 288 287 288 289 290 290 290
293 294 295 292 291 289 289 287 287 289 288 286 288 287 284 286 289 290 289 290 289 288 286 285 279 276 275 279 279 275 282 282 285 286 285 282 288 287 285 287 288 290 290 291 291
Wind_Speed
22 22 23 22 21 20 22 23 23 24 21 19 17 14 12 11 9 4 6 5 4 2 3 2 2 2 2 3 3 3 3 3 4 4 3 3 5 1 1 6 1 3 4 2 14
20 21 23 24 21 18 20 24 24 23 26 23 18 16 14 13 4 5 4 6 7 6 2 3 4 1 2 2 1 4 4 8 5 4 3 6 4 8 4 3 2 2 3 9 16
17 20 22 23 21 21 23 26 24 22 22 23 21 18 17 9 5 9 17 10 9 8 6 4 3 2 2 2 3 2 6 5 3 4 3 2 4 5 8 3 8 9 8 16 15
13 18 22 20 22 24 19 23 24 23 20 24 22 22 19 4 9 0 9 21 13 8 8 8 3 6 5 5 2 4 3 3 2 2 3 1 2 5 7 6 2 6 12 16 19
8 12 21 21 20 23 23 19 25 26 22 20 26 24 7 5 8 2 5 17 10 9 8 8 5 6 6 5 5 4 2 5 0 2 2 2 4 5 8 3 3 9 12 16 18
10 7 13 18 18 22 22 19 18 26 24 26 28 23 6 12 4 3 9 9 7 7 7 8 10 6 5 4 5 6 3 2 2 2 3 3 1 3 5 6 6 11 13 14 17
9 10 7 11 18 20 20 12 19 24 26 28 30 12 4 10 5 8 8 5 6 5 6 2 5 6 7 5 3 5 4 3 2 2 2 4 2 6 0 3 6 8 8 8 11
12 11 9 9 16 19 19 23 11 24 28 30 28 5 6 4 6 9 7 6 5 4 4 4 3 5 2 3 4 4 5 1 1 6 1 4 6 9 6 6 8 8 7 8 10
14 13 12 10 12 17 21 20 13 28 30 29 13 6 6 8 7 5 5 11 7 4 2 3 2 4 3 6 3 6 4 5 4 4 5 5 4 3 4 7 9 8 7 8 8
12 11 12 11 10 15 15 11 15 27 24 14 7 7 3 9 7 9 3 11 6 9 5 3 2 3 3 6 9 7 4 1 3 2 1 2 7 7 4 7 8 6 7 9 10
10 12 14 13 11 17 14 3 13 18 25 8 17 5 15 5 6 4 9 7 5 5 6 5 5 12 7 3 5 8 4 4 2 3 1 5 7 11 6 3 7 8 8 11 13
13 14 15 15 15 16 10 7 27 7 30 2 20 7 6 8 8 8 11 9 9 11 7 4 13 6 9 5 5 4 4 2 4 1 3 4 9 11 6 7 8 10 9 11 9
14 16 15 15 14 11 14 23 23 23 11 2 16 8 12 7 10 15 12 5 11 9 10 8 2 9 7 5 7 3 5 4 3 2 1 4 11 9 7 5 7 7 8 6 13
15 16 15 15 9 11 19 23 15 5 8 10 13 8 7 10 5 3 7 9 5 11 8 5 4 11 9 6 7 6 5 5 4 3 5 1 9 7 11 14 7 10 8 12 12
19 20 18 23 4 16 10 22 20 1 14 16 10 3 8 14 18 6 3 6 9 8 7 5 8 8 10 9 9 6 7 6 4 3 0 1 4 7 6 14 12 13 12 14 14
20 21 20 14 12 13 10 19 14 12 9 9 10 12 21 4 3 7 5 7 6 7 6 4 1 7 9 6 7 11 8 6 4 3 5 7 7 7 8 11 7 7 12 13 14
21 22 19 10 19 15 14 15 13 13 10 9 16 17 24 8 7 26 20 12 10 11 10 3 3 2 6 7 1 4 8 2 1 1 9 4 6 18 8 6 9 12 12 11 8
20 21 13 15 13 14 16 14 15 11 8 5 24 22 15 15 4 8 23 13 6 6 9 12 6 8 4 7 8 6 6 6 8 6 3 1 11 9 11 12 7 7 7 5 7
19 10 10 14 15 12 17 18 8 20 12 20 23 22 8 7 9 13 25 23 6 8 9 8 4 1 4 6 11 6 11 8 4 3 3 6 9 11 9 11 8 10 6 11 8
6 7 14 20 17 15 15 11 5 10 16 29 21 12 19 21 13 16 22 19 11 7 5 7 7 1 3 5 2 10 10 5 2 3 4 5 6 8 5 8 11 8 7 6 5
7 7 9 20 14 17 17 5 6 7 29 19 17 13 12 25 12 21 24 1 8 7 6 7 6 0 6 7 9 6 7 3 6 6 5 1 8 9 9 5 6 8 8 8 8
6 11 12 19 14 15 17 11 9 23 10 8 7 7 22 22 11 7 17 7 13 10 10 5 7 5 6 2 4 6 9 9 6 2 2 4 10 5 3 2 4 9 9 7 5
7 6 13 18 12 14 12 5 10 30 9 7 7 5 19 20 10 4 8 4 17 23 18 9 1 5 4 5 2 5 4 14 4 3 7 6 12 2 4 4 6 7 8 5 1
3 7 6 16 6 16 20 17 14 3 6 7 9 20 14 13 7 10 7 5 16 13 8 11 4 9 10 4 9 7 6 7 16 5 12 16 24 11 13 3 6 6 7 4 6
4 5 4 17 15 18 14 24 27 13 3 9 5 21 14 10 5 7 6 6 3 6 5 5 7 4 3 4 3 5 10 10 14 22 14 28 16 14 8 8 7 6 4 5 7
2 4 5 10 27 24 19 16 31 6 8 7 16 24 11 14 11 12 11 6 8 3 8 2 1 5 1 3 3 1 9 18 22 22 16 6 16 5 8 6 7 8 7 10 8
3 5 11 17 24 21 20 29 31 20 6 6 24 18 7 13 14 13 4 8 17 19 14 13 9 6 9 1 5 6 19 15 17 18 18 17 23 8 5 8 10 9 9 11 9
Wind_Direction
237 238 228 213 221 234 216 208 203 189 175 174 168 167 157 129 111 99 229 194 174 158 4 46 43 33 78 97 79 129 90 223 221 175 227 153 167 10 64 115 160 162 152 285 136
237 234 227 210 222 230 228 209 201 195 189 175 169 164 149 133 112 211 223 217 202 148 86 155 158 147 71 117 60 119 157 204 205 204 241 177 191 163 133 118 215 166 52 125 146
240 233 233 220 212 225 232 215 195 192 184 180 167 160 148 150 54 249 190 195 202 153 134 14 124 149 143 162 178 173 174 191 222 224 149 239 171 173 126 213 210 192 160 157 156
251 232 232 222 217 220 220 236 191 184 182 177 169 155 155 178 204 34 215 185 182 157 131 150 201 156 170 156 187 121 219 157 0 175 85 211 67 183 193 213 213 191 150 163 173
255 247 226 231 220 223 226 228 190 185 180 164 153 151 153 92 244 260 251 169 151 150 171 149 157 144 178 159 109 149 199 172 194 238 207 108 241 260 240 211 76 131 153 177 183
247 257 233 227 224 220 222 216 241 181 180 155 151 151 127 194 195 107 118 129 142 146 167 146 176 195 136 176 184 179 170 104 117 258 215 195 309 87 278 156 139 156 177 185 187
246 246 247 237 224 219 208 222 230 183 174 156 155 155 130 195 140 130 125 145 138 138 135 187 170 157 144 124 191 148 174 17 211 151 242 171 301 227 63 314 172 184 183 191 196
247 239 238 236 233 217 213 218 249 193 179 157 155 158 174 148 129 117 119 88 131 124 136 161 111 103 87 105 56 120 82 191 220 160 80 137 258 264 167 161 233 209 198 194 199
245 231 223 240 231 225 221 217 252 192 167 150 147 165 160 136 137 150 124 139 126 101 61 123 64 121 88 117 79 12 163 194 292 221 129 157 239 261 160 175 235 230 219 206 213
247 233 220 235 241 227 204 229 244 172 151 133 131 116 214 192 142 137 112 127 130 129 104 97 85 118 89 182 201 176 165 81 214 228 134 194 241 266 200 180 229 255 230 225 221
250 237 235 238 244 225 210 257 205 178 153 148 171 138 128 144 99 132 148 103 101 114 155 171 137 195 176 144 114 127 115 141 234 5 143 233 249 251 215 222 231 241 230 234 231
256 255 244 242 246 245 205 240 202 162 157 160 168 84 122 146 104 154 148 131 150 164 129 105 217 160 132 134 100 103 120 220 298 152 173 318 265 256 240 232 210 224 218 234 243
251 248 246 243 243 240 213 243 177 156 143 177 188 129 157 129 142 175 152 118 150 143 168 167 191 141 131 135 131 100 138 157 221 329 259 306 268 243 258 230 232 224 240 207 227
263 259 251 252 249 224 213 245 167 182 150 169 179 199 137 130 73 147 160 129 137 161 115 175 126 147 145 163 134 161 173 128 148 135 235 77 282 259 239 237 211 234 217 240 218
258 259 254 221 220 204 202 180 172 171 193 161 147 337 134 170 131 224 184 56 147 153 131 182 140 128 172 169 148 185 148 127 112 122 99 280 305 259 235 235 238 226 219 228 237
263 259 247 236 226 216 198 168 169 206 161 157 129 174 150 180 42 127 129 63 129 87 64 156 12 149 164 155 152 146 103 66 73 80 265 200 191 243 210 219 229 223 230 223 226
266 251 243 223 221 184 212 172 190 203 144 153 145 161 156 142 120 159 169 152 158 132 171 128 164 151 123 98 104 151 141 55 245 215 233 297 217 255 262 254 218 220 226 228 214
264 256 239 235 203 165 221 184 201 130 151 150 143 138 156 146 62 161 161 178 233 122 130 166 196 162 183 155 163 178 165 160 188 197 239 91 231 253 245 267 251 256 249 248 247
273 256 242 220 178 211 188 195 160 143 153 142 130 142 132 147 135 153 186 186 151 176 140 136 200 96 148 150 139 188 209 152 81 12 69 216 285 294 259 273 261 247 246 259 249
255 252 239 180 179 217 169 185 133 150 142 148 139 157 151 173 153 177 179 197 176 175 153 186 120 297 162 111 64 182 144 123 88 221 250 264 269 243 326 258 262 282 284 313 274
239 236 179 173 189 186 179 168 131 154 150 151 141 130 181 158 180 181 178 204 137 160 89 136 101 205 136 209 155 125 181 184 145 177 180 290 260 217 248 359 315 288 279 253 226
232 218 173 156 214 170 168 157 143 150 157 97 82 91 168 159 156 149 183 148 147 138 130 191 119 142 201 239 186 187 172 177 171 217 226 132 256 206 190 274 282 277 284 274 217
229 189 185 159 201 171 119 138 134 155 141 129 128 157 164 166 132 128 146 172 165 162 166 176 119 89 22 347 353 220 177 203 124 72 206 135 261 283 151 235 263 290 308 292 246
179 179 161 175 173 142 125 149 132 129 74 95 106 120 130 161 26 155 134 171 189 174 130 126 133 163 180 183 135 188 195 182 189 181 216 225 237 249 273 247 317 302 291 255 212
222 212 154 169 167 146 131 156 148 155 117 138 98 156 152 136 91 124 114 105 43 153 90 130 160 110 43 54 108 154 173 172 192 221 189 242 245 236 243 289 262 255 262 219 215
214 204 106 144 150 148 135 161 161 129 144 181 151 161 146 156 170 151 132 129 169 117 144 84 181 117 17 16 101 162 195 195 209 225 239 244 262 178 228 238 257 233 239 249 233
224 276 146 151 163 153 176 165 171 144 12 132 140 138 111 157 144 152 128 143 155 163 172 161 137 118 229 189 102 322 216 197 217 217 218 231 247 180 213 231 236 247 231 244 250